Triuchirapalli, India

2:23 AM IST on August 22, 2017 (GMT +0530)
Tiruchirappalli

Weather History for VOTR - October, 2012

Change the Weather History Date:

Sunday, October 21, 2012

  Actual Average Record
Temperature  
Mean Temperature 80 °F -  
Max Temperature 85 °F 84 °F 93 °F (1996)
Min Temperature 74 °F 75 °F 72 °F (2013)
Cooling Degree Days 14    
Growing Degree Days 30 (Base 50)    
Moisture  
Dew Point 75 °F    
Average Humidity 88    
Maximum Humidity 100    
Minimum Humidity 64    
Precipitation  
Precipitation 0.87 in - - ()
Sea Level Pressure  
Sea Level Pressure 29.85 in    
Wind  
Wind Speed 6 mph ()    
Max Wind Speed 17 mph    
Max Gust Speed -    
Visibility 2.7 miles    
Events Rain , Hail , Thunderstorm    
Averages and records for this station are not official NWS values.
T = Trace of Precipitation, MM = Missing Value Source: Averaged Metar Reports

Daily Weather History Graph

Daily Weather History Graph

Search for Another Location

Airport or City:

Trip Planner

Search our weather history database for the weather conditions in past years. The results will help you decide how hot, cold, wet, or windy it might be!

Date:

Astronomy

Oct. 21, 2012 Rise Set
Actual Time 6:04 AM IST 5:54 PM IST
Civil Twilight 5:43 AM IST 6:16 PM IST
Nautical Twilight 5:18 AM IST 6:40 PM IST
Astronomical Twilight 4:53 AM IST 7:05 PM IST
Moon 11:40 AM IST 11:37 PM IST
Length of Visible Light 12h 32m
Length of Day
11h 50m
Waxing Crescent, 40% of the Moon is Illuminated
Oct 21
Waxing Crescent
Oct 22
First Quarter
Oct 30
Full
Nov 7
Last Quarter
Nov 14
New

Hourly Weather History & Observations

Time (IST) Temp. Heat Index Dew Point Humidity Pressure Visibility Wind Dir Wind Speed Gust Speed Precip Events Conditions
12:10 AM 75.2 °F - 73.4 °F 94% 29.89 in 3.1 mi East 2.3 mph - N/A   Light Drizzle
12:40 AM 75.2 °F - 73.4 °F 94% 29.89 in 2.5 mi East 2.3 mph - N/A   Drizzle
1:40 AM 75.2 °F - 73.4 °F 94% 29.86 in 1.9 mi ENE 2.3 mph - N/A   Light Drizzle
2:10 AM 75.2 °F - 73.4 °F 94% 29.83 in 1.9 mi NNE 5.8 mph - N/A   Drizzle
2:30 AM 76 °F - 75 °F 95% 29.84 in 1 mi NNE 4.6 mph - - Rain Drizzle
2:40 AM 75.2 °F - 75.2 °F 100% 29.83 in 1.9 mi NNE 5.8 mph - N/A   Light Drizzle
3:10 AM 75.2 °F - 75.2 °F 100% 29.83 in 2.5 mi NNE 4.6 mph - N/A   Light Drizzle
4:10 AM 75.2 °F - 75.2 °F 100% 29.83 in 2.5 mi NNE 4.6 mph - N/A   Light Drizzle
5:10 AM 75.2 °F - 75.2 °F 100% 29.83 in 2.5 mi NE 8.1 mph - N/A   Haze
5:30 AM 76 °F - 73 °F 89% 29.85 in 1 mi NE 6.9 mph - - Rain Light Drizzle
7:40 AM 77.0 °F - 75.2 °F 94% 29.89 in 1.9 mi NE 9.2 mph - N/A   Haze
8:10 AM 77.0 °F - 75.2 °F 94% 29.89 in 1.9 mi ENE 10.4 mph - N/A   Haze
8:30 AM 76 °F - 75 °F 95% 29.90 in 1 mi NE 5.8 mph - - Rain Light Drizzle
8:40 AM 75.2 °F - 73.4 °F 94% 29.89 in 1.9 mi ENE 6.9 mph - N/A   Haze
9:10 AM 77.0 °F - 75.2 °F 94% 29.92 in 2.5 mi ENE 10.4 mph - N/A   Haze
9:40 AM 78.8 °F - 75.2 °F 89% 29.92 in 2.5 mi ENE 9.2 mph - N/A   Haze
10:40 AM 80.6 °F 85.4 °F 73.4 °F 79% 29.89 in 3.1 mi NNE 5.8 mph - N/A   Haze
11:10 AM 84.2 °F 92.3 °F 75.2 °F 74% 29.89 in 3.7 mi ENE 6.9 mph - N/A   Mostly Cloudy
11:30 AM 81 °F - 75 °F 77% 29.90 in 2 mi NW 10.4 mph - -   Haze
11:40 AM 82.4 °F 89.5 °F 75.2 °F 79% 29.89 in 5.0 mi NE 10.4 mph - N/A   Mostly Cloudy
12:10 PM 82.4 °F 89.5 °F 75.2 °F 79% 29.86 in 5.0 mi NE 12.7 mph - N/A   Mostly Cloudy
12:40 PM 82.4 °F 89.5 °F 75.2 °F 79% 29.83 in 5.0 mi East 8.1 mph - N/A   Mostly Cloudy
1:10 PM 84.2 °F 92.3 °F 75.2 °F 74% 29.83 in 5.0 mi East 6.9 mph - N/A   Mostly Cloudy
1:40 PM 84.2 °F 92.3 °F 75.2 °F 74% 29.80 in 5.0 mi NE 10.4 mph - N/A   Mostly Cloudy
2:10 PM 84.2 °F 92.3 °F 75.2 °F 74% 29.80 in 5.0 mi ENE 8.1 mph - N/A   Light Drizzle
2:30 PM 85 °F - 74 °F 64% 29.80 in 2 mi East 11.5 mph - - Rain Light Drizzle
2:40 PM 84.2 °F 92.3 °F 75.2 °F 74% 29.80 in 5.0 mi East 11.5 mph - N/A   Mostly Cloudy
3:10 PM 84.2 °F 92.3 °F 75.2 °F 74% 29.80 in 3.7 mi ENE 9.2 mph - N/A   Mostly Cloudy
3:40 PM 82.4 °F 89.5 °F 75.2 °F 79% 29.80 in 3.7 mi East 9.2 mph - N/A   Mostly Cloudy
4:10 PM 82.4 °F 89.5 °F 75.2 °F 79% 29.77 in 3.7 mi East 9.2 mph - N/A   Mostly Cloudy
5:30 PM 77 °F - 74 °F 89% 29.80 in 1 mi NE 3.5 mph - - Rain , Thunderstorm Thunderstorms and Rain
6:40 PM 77.0 °F - 73.4 °F 89% 29.83 in 3.1 mi Variable 2.3 mph - N/A   Haze
7:10 PM 77.0 °F - 73.4 °F 89% 29.83 in 3.1 mi Variable 2.3 mph - N/A   Haze
7:40 PM 77.0 °F - 75.2 °F 94% 29.83 in 1.9 mi Calm Calm - N/A Rain Rain
8:30 PM 76 °F - 74 °F 93% 29.86 in 1 mi NE 4.6 mph - - Hail , Thunderstorm Thunderstorms with Hail
8:40 PM 75.2 °F - 73.4 °F 94% 29.86 in 1.9 mi East 17.3 mph - N/A Rain , Thunderstorm Thunderstorms and Rain
9:10 PM 75.2 °F - 75.2 °F 100% 29.86 in 1.9 mi ENE 3.5 mph - N/A   Drizzle
9:40 PM 75.2 °F - 75.2 °F 100% 29.89 in 1.9 mi ENE 3.5 mph - N/A   Drizzle
10:10 PM 75.2 °F - 75.2 °F 100% 29.89 in 1.9 mi ENE 5.8 mph - N/A   Light Drizzle
10:40 PM 77.0 °F - 75.2 °F 94% 29.89 in 2.5 mi ENE 8.1 mph - N/A   Haze
11:10 PM 77.0 °F - 75.2 °F 94% 29.89 in 2.5 mi ENE 8.1 mph - N/A   Haze
11:30 PM 75 °F - 74 °F 96% 29.88 in 2 mi NNE 3.5 mph - - Rain Light Drizzle